sat.trackr.live / text

‹ back to catalog

STARLINK-34726

NORAD 64935 · 2025-158D

PAYLOAD ACTIVE UNKNOWN

§ Identity

Operator
Country
US
Launch date
2025-07-27
Launch site
AFWTR
Launch vehicle
Mass (kg)
RCS (m²)

Purposes: comms

External: N2YO · Heavens-Above · Gunter

§ Orbital elements

Epoch: 2026-05-25T05:16:48.348192Z

Period
95.64 min
Inclination
97.4488°
Eccentricity
0.0002554
Mean motion
15.05657784 rev/d
Perigee alt
547.7 km
Apogee alt
551.3 km
Semi-major
6,927.6 km
B*
5.8012e-4
RAAN
9.1725°
Arg perigee
91.5571°
Mean anomaly
268.5949°
Rev number
4,687

§ Raw data

STARLINK-347261 64935U 25158D   26145.22000403  .00008324  00000+0  58012-3 0  99922 64935  97.4488   9.1725 0002554  91.5571 268.5949 15.05657784 46873

JSON: /api/v1/satellites/64935 · /tle

For live sub-satellite position, see the globe view (requires WebGL).

§ Visibility from observer

Set your observer location to see the next 7 days of passes ≥ 10°. The values pass through the URL so the page stays shareable.

No JS? Fill the form by hand. The geolocation button needs JavaScript.